Find Starlink 31361

NORAD ID: 58974 Int'l Des: 2024-031 Owner: SPXS Country: US Constellation: starlink operational
LEOCIRCULAR

現在のビュー

3D地球を読み込み中...

About Starlink 31361

Starlink 31361 (NORAD 58974) is a starlink constellation satellite (v2 mini) launched Feb 15, 2024 by SPXS of US. It operates in LEO, CIRCULAR orbit with a mass of 730.00 kg.

次回通過

Passes for default location (London). Set your location on the main map for personalized predictions.

高度履歴

Loading altitude history...

軌道要素

1 58974U 24031K 26221.49892315 .00008672 00000-0 26736-3 0 9997
2 58974 53.1601 305.8728 0001422 64.4489 295.6661 15.34416787139945
Epoch: Aug 9, 2026 • Age: 19 hours

現在のステータス

高度 466.6 km
遠地点 / 近地点 N/A
速度 7.64 km/s
衛星直下点 44.66°N, 7.19°E
打ち上げ日 Feb 15, 2024
運用期間 2.4 years
タイプ internet

技術仕様

分類 Payload
質量 730.00 kg
乾燥質量 700.00 kg
総質量 730.00 kg
長さ 0.30 m
直径 4.10 m
スパン 29.00 m
形状 Box + pan
製造者 SPXS
バスタイプ Starlink V2M
フェーズステータス In Orbit
所有者/国 SPXS/US

Most Searched